Language: 


Des rapports , des résumés tant et plus, au choix de chacun....


Données statistiques de la station
Quotidien Rapport Juin 26, 2017 Unités:  Métrique    Anglais   les deux
« Précédent Jour
Suivant Jour »
Quotidien Hebdomadaire Mensuel Annuel Actuel
  Haut: Bas: Moyen:
Température: 27.4 °C 14.8 °C 20 °C
Pt de rosée: 16.0 °C 8.0 °C 12 °C
Humidité: 95 % 34 % 64 %
Vitesse du vent: 17.7 km/h 0.0 km/h 7.3 km/h
Rafales: 21.2 km/h - -
Vent:- - South
Pression: 1015.1 hPa 1012.1 hPa -
Précipitation: 0.0 mm    
Historical Graphs
 
 
Données statistiques pour Juin 26, 2017
Heure Température Point de rosée Pression Vent Vitesse du vent Refales Humidité Pluie (taux horaire)
00:04 16.1 °C 14.0 °C 1013.1 hPa West 13.7 km/h 21.2 km/h 89 % 0.0 mm
00:09 16.1 °C 14.0 °C 1013.1 hPa WSW 16.6 km/h 17.7 km/h 89 % 0.0 mm
00:14 16.0 °C 14.0 °C 1013.1 hPa WSW 9.0 km/h 17.2 km/h 90 % 0.0 mm
00:19 15.9 °C 14.0 °C 1013.1 hPa West 13.7 km/h 16.3 km/h 90 % 0.0 mm
00:24 15.8 °C 14.0 °C 1013.1 hPa WSW 12.2 km/h 15.8 km/h 90 % 0.0 mm
00:29 15.8 °C 14.0 °C 1013.1 hPa WSW 10.1 km/h 15.8 km/h 91 % 0.0 mm
00:34 15.7 °C 14.0 °C 1013.1 hPa WSW 9.3 km/h 14.0 km/h 91 % 0.0 mm
00:39 15.7 °C 14.0 °C 1013.1 hPa WSW 10.1 km/h 18.3 km/h 91 % 0.0 mm
00:44 15.7 °C 14.0 °C 1013.1 hPa WSW 9.3 km/h 18.3 km/h 92 % 0.0 mm
00:49 15.7 °C 14.0 °C 1013.1 hPa WSW 7.6 km/h 13.7 km/h 91 % 0.0 mm
00:54 15.6 °C 14.0 °C 1013.1 hPa WSW 10.1 km/h 12.2 km/h 92 % 0.0 mm
00:59 15.5 °C 14.0 °C 1013.1 hPa West 14.0 km/h 14.0 km/h 92 % 0.0 mm
01:04 15.5 °C 14.0 °C 1013.1 hPa SW 9.3 km/h 14.0 km/h 92 % 0.0 mm
01:09 15.4 °C 14.0 °C 1013.1 hPa Calm   12.2 km/h 92 % 0.0 mm
01:14 15.4 °C 14.0 °C 1013.1 hPa WSW 5.8 km/h 11.9 km/h 92 % 0.0 mm
01:19 15.5 °C 14.0 °C 1013.1 hPa West 10.8 km/h 11.9 km/h 92 % 0.0 mm
01:24 15.5 °C 15.0 °C 1013.1 hPa WSW 7.9 km/h 10.8 km/h 93 % 0.0 mm
01:29 15.5 °C 15.0 °C 1013.1 hPa WSW 5.0 km/h 10.1 km/h 93 % 0.0 mm
01:34 15.6 °C 15.0 °C 1013.1 hPa WSW 6.4 km/h 14.0 km/h 93 % 0.0 mm
01:39 15.6 °C 15.0 °C 1013.1 hPa WSW 10.1 km/h 14.0 km/h 93 % 0.0 mm
01:44 15.6 °C 15.0 °C 1013.1 hPa WSW 7.9 km/h 11.1 km/h 93 % 0.0 mm
01:49 15.5 °C 15.0 °C 1013.1 hPa SW 6.1 km/h 12.2 km/h 93 % 0.0 mm
01:54 15.4 °C 14.0 °C 1013.1 hPa WSW 10.1 km/h 12.2 km/h 93 % 0.0 mm
01:59 15.4 °C 14.0 °C 1013.1 hPa WSW 9.0 km/h 11.6 km/h 93 % 0.0 mm
02:05 15.4 °C 14.0 °C 1013.1 hPa WSW 10.1 km/h 11.6 km/h 93 % 0.0 mm
02:10 15.4 °C 14.0 °C 1013.1 hPa WSW 7.9 km/h 11.6 km/h 93 % 0.0 mm
02:15 15.4 °C 14.0 °C 1013.1 hPa SW 5.0 km/h 11.6 km/h 94 % 0.0 mm
02:20 15.5 °C 15.0 °C 1013.1 hPa WSW 10.1 km/h 10.1 km/h 94 % 0.0 mm
02:25 15.5 °C 15.0 °C 1013.1 hPa West 7.9 km/h 10.1 km/h 94 % 0.0 mm
02:30 15.6 °C 15.0 °C 1013.1 hPa WSW 5.8 km/h 10.1 km/h 94 % 0.0 mm
02:35 15.7 °C 15.0 °C 1013.1 hPa WSW 6.1 km/h 10.5 km/h 94 % 0.0 mm
02:40 15.8 °C 15.0 °C 1013.1 hPa SW 7.9 km/h 12.6 km/h 94 % 0.0 mm
02:45 15.8 °C 15.0 °C 1013.1 hPa WSW 9.3 km/h 12.6 km/h 94 % 0.0 mm
02:50 15.9 °C 15.0 °C 1013.1 hPa SSW 6.9 km/h 10.5 km/h 94 % 0.0 mm
02:55 15.9 °C 15.0 °C 1013.1 hPa West 9.7 km/h 10.5 km/h 94 % 0.0 mm
03:00 16.0 °C 15.0 °C 1013.1 hPa WSW 9.3 km/h 11.6 km/h 93 % 0.0 mm
03:05 16.0 °C 15.0 °C 1013.1 hPa WSW 12.6 km/h 16.6 km/h 93 % 0.0 mm
03:10 16.0 °C 15.0 °C 1013.1 hPa West 10.5 km/h 16.6 km/h 93 % 0.0 mm
03:15 16.1 °C 15.0 °C 1013.1 hPa West 9.3 km/h 15.1 km/h 93 % 0.0 mm
03:20 16.1 °C 15.0 °C 1013.1 hPa WSW 6.4 km/h 15.1 km/h 93 % 0.0 mm
03:25 16.1 °C 15.0 °C 1013.1 hPa Calm   15.1 km/h 93 % 0.0 mm
03:30 16.1 °C 15.0 °C 1013.1 hPa WSW 5.5 km/h 12.2 km/h 93 % 0.0 mm
03:35 16.0 °C 15.0 °C 1013.1 hPa WSW 9.3 km/h 12.2 km/h 93 % 0.0 mm
03:40 16.0 °C 15.0 °C 1013.1 hPa WSW 9.0 km/h 10.1 km/h 93 % 0.0 mm
03:45 15.9 °C 15.0 °C 1013.1 hPa WSW 8.7 km/h 10.5 km/h 93 % 0.0 mm
03:50 15.9 °C 15.0 °C 1012.1 hPa West 8.7 km/h 11.9 km/h 93 % 0.0 mm
03:55 15.9 °C 15.0 °C 1012.1 hPa WSW 6.9 km/h 11.9 km/h 93 % 0.0 mm
04:00 15.9 °C 15.0 °C 1012.1 hPa WSW 5.8 km/h 11.9 km/h 93 % 0.0 mm
04:05 15.9 °C 15.0 °C 1013.1 hPa WSW 6.4 km/h 11.9 km/h 93 % 0.0 mm
04:10 15.9 °C 15.0 °C 1013.1 hPa WSW 5.5 km/h 11.6 km/h 94 % 0.0 mm
04:16 15.9 °C 15.0 °C 1013.1 hPa WSW 7.9 km/h 10.5 km/h 94 % 0.0 mm
04:21 15.8 °C 15.0 °C 1013.1 hPa West 11.9 km/h 12.6 km/h 94 % 0.0 mm
04:26 15.8 °C 15.0 °C 1013.1 hPa West 6.1 km/h 11.9 km/h 93 % 0.0 mm
04:31 15.7 °C 15.0 °C 1013.1 hPa Calm   10.1 km/h 93 % 0.0 mm
04:36 15.6 °C 15.0 °C 1013.1 hPa West 7.2 km/h 10.1 km/h 93 % 0.0 mm
04:41 15.5 °C 15.0 °C 1013.1 hPa WSW 4.3 km/h 10.1 km/h 93 % 0.0 mm
04:46 15.4 °C 14.0 °C 1013.1 hPa Calm   7.9 km/h 93 % 0.0 mm
04:51 15.4 °C 14.0 °C 1013.1 hPa Calm   6.4 km/h 94 % 0.0 mm
04:56 15.2 °C 14.0 °C 1013.1 hPa Calm     94 % 0.0 mm
05:01 15.2 °C 14.0 °C 1013.1 hPa Calm   5.0 km/h 94 % 0.0 mm
05:06 15.1 °C 14.0 °C 1013.1 hPa Calm   5.0 km/h 94 % 0.0 mm
05:11 15.1 °C 14.0 °C 1013.1 hPa Calm   6.1 km/h 94 % 0.0 mm
05:16 14.9 °C 14.0 °C 1013.1 hPa West 4.7 km/h 6.1 km/h 94 % 0.0 mm
05:22 14.9 °C 14.0 °C 1013.1 hPa Calm   6.9 km/h 94 % 0.0 mm
05:27 14.8 °C 14.0 °C 1013.1 hPa Calm   6.9 km/h 94 % 0.0 mm
05:32 14.9 °C 14.0 °C 1013.1 hPa Calm     94 % 0.0 mm
05:37 14.9 °C 14.0 °C 1013.1 hPa Calm   4.0 km/h 95 % 0.0 mm
05:42 14.9 °C 14.0 °C 1013.1 hPa Calm   4.0 km/h 95 % 0.0 mm
05:47 14.9 °C 14.0 °C 1013.1 hPa West 5.5 km/h 5.5 km/h 95 % 0.0 mm
05:52 14.9 °C 14.0 °C 1013.1 hPa West 6.1 km/h 9.3 km/h 95 % 0.0 mm
05:57 15.0 °C 14.0 °C 1013.1 hPa Calm   9.3 km/h 95 % 0.0 mm
06:02 15.0 °C 14.0 °C 1013.1 hPa West 6.1 km/h 10.1 km/h 95 % 0.0 mm
06:07 15.1 °C 14.0 °C 1013.1 hPa West 7.6 km/h 10.1 km/h 95 % 0.0 mm
06:12 15.1 °C 14.0 °C 1013.1 hPa Calm   10.5 km/h 95 % 0.0 mm
06:17 15.1 °C 14.0 °C 1013.1 hPa West 7.9 km/h 10.5 km/h 95 % 0.0 mm
06:22 15.2 °C 15.0 °C 1013.1 hPa WSW 6.4 km/h 10.1 km/h 95 % 0.0 mm
06:27 15.2 °C 15.0 °C 1013.1 hPa West 4.3 km/h 10.5 km/h 95 % 0.0 mm
06:32 15.2 °C 15.0 °C 1013.1 hPa WSW 1.4 km/h 10.5 km/h 95 % 0.0 mm
06:37 15.3 °C 15.0 °C 1013.1 hPa West 1.4 km/h 7.9 km/h 95 % 0.0 mm
06:42 15.4 °C 15.0 °C 1013.1 hPa Calm   10.1 km/h 95 % 0.0 mm
06:47 15.5 °C 15.0 °C 1013.1 hPa West 9.0 km/h 10.1 km/h 95 % 0.0 mm
06:52 15.6 °C 15.0 °C 1013.1 hPa West 7.9 km/h 9.0 km/h 95 % 0.0 mm
06:57 15.8 °C 15.0 °C 1013.1 hPa Calm   9.0 km/h 95 % 0.0 mm
07:02 15.8 °C 15.0 °C 1013.1 hPa West 7.6 km/h 9.0 km/h 95 % 0.0 mm
07:07 16.0 °C 15.0 °C 1013.1 hPa Calm   7.6 km/h 94 % 0.0 mm
07:12 16.1 °C 15.0 °C 1013.1 hPa WNW 5.0 km/h 7.6 km/h 94 % 0.0 mm
07:13 16.1 °C 15.0 °C 1013.1 hPa WNW 5.0 km/h 7.6 km/h 94 % 0.0 mm
07:18 16.2 °C 15.0 °C 1014.1 hPa Calm   6.9 km/h 94 % 0.0 mm
07:23 16.3 °C 15.0 °C 1014.1 hPa Calm   6.4 km/h 94 % 0.0 mm
07:28 16.5 °C 16.0 °C 1014.1 hPa WSW 4.0 km/h 5.8 km/h 94 % 0.0 mm
07:33 16.7 °C 16.0 °C 1014.1 hPa WNW 4.3 km/h 5.8 km/h 94 % 0.0 mm
07:38 16.9 °C 16.0 °C 1014.1 hPa Calm   4.7 km/h 94 % 0.0 mm
07:43 17.0 °C 16.0 °C 1014.1 hPa Calm   6.9 km/h 93 % 0.0 mm
07:48 17.2 °C 16.0 °C 1014.1 hPa Calm   6.9 km/h 93 % 0.0 mm
07:53 17.4 °C 16.0 °C 1014.1 hPa WNW 2.6 km/h 6.9 km/h 92 % 0.0 mm
07:58 17.6 °C 16.0 °C 1014.1 hPa NNW 3.5 km/h 6.9 km/h 91 % 0.0 mm
08:03 17.9 °C 16.0 °C 1014.1 hPa WNW 5.5 km/h 5.8 km/h 90 % 0.0 mm
08:08 18.1 °C 16.0 °C 1014.1 hPa Calm   6.1 km/h 89 % 0.0 mm
08:13 18.0 °C 16.0 °C 1014.1 hPa NNW 4.7 km/h 7.9 km/h 86 % 0.0 mm
08:18 18.1 °C 15.0 °C 1014.1 hPa NNE 3.2 km/h 9.3 km/h 84 % 0.0 mm
08:23 18.1 °C 15.0 °C 1014.1 hPa Calm   9.3 km/h 84 % 0.0 mm
08:28 18.0 °C 15.0 °C 1014.1 hPa NE 4.0 km/h 9.0 km/h 82 % 0.0 mm
08:33 18.0 °C 15.0 °C 1014.1 hPa NE 6.1 km/h 9.0 km/h 81 % 0.0 mm
08:38 18.1 °C 15.0 °C 1014.1 hPa Calm   9.0 km/h 82 % 0.0 mm
08:43 18.2 °C 15.0 °C 1014.1 hPa WNW 6.4 km/h 6.4 km/h 81 % 0.0 mm
08:48 18.2 °C 15.0 °C 1014.1 hPa NNE 7.9 km/h 8.7 km/h 80 % 0.0 mm
08:53 18.1 °C 15.0 °C 1014.1 hPa North 4.7 km/h 9.3 km/h 80 % 0.0 mm
08:58 18.3 °C 15.0 °C 1014.1 hPa NW 5.8 km/h 9.3 km/h 80 % 0.0 mm
09:03 18.4 °C 15.0 °C 1014.1 hPa NNE 4.0 km/h 7.9 km/h 79 % 0.0 mm
09:08 18.5 °C 14.0 °C 1014.1 hPa North 4.7 km/h 10.1 km/h 76 % 0.0 mm
09:13 19.3 °C 15.0 °C 1014.1 hPa NE 6.9 km/h 11.6 km/h 74 % 0.0 mm
09:19 19.7 °C 15.0 °C 1014.1 hPa North 9.0 km/h 11.6 km/h 72 % 0.0 mm
09:23 19.9 °C 15.0 °C 1014.1 hPa NNW 1.4 km/h 10.1 km/h 71 % 0.0 mm
09:29 19.8 °C 14.0 °C 1014.1 hPa North 4.3 km/h 10.5 km/h 70 % 0.0 mm
09:34 19.9 °C 14.0 °C 1014.1 hPa NNW 5.0 km/h 10.5 km/h 70 % 0.0 mm
09:39 20.0 °C 14.0 °C 1014.1 hPa Calm   9.3 km/h 69 % 0.0 mm
09:44 20.1 °C 13.0 °C 1014.1 hPa NE 13.0 km/h 13.0 km/h 66 % 0.0 mm
09:49 20.1 °C 13.0 °C 1014.1 hPa North 6.9 km/h 13.0 km/h 66 % 0.0 mm
09:54 20.2 °C 14.0 °C 1014.1 hPa North 5.0 km/h 10.1 km/h 65 % 0.0 mm
09:59 20.5 °C 13.0 °C 1014.1 hPa North 9.3 km/h 13.0 km/h 63 % 0.0 mm
10:04 21.2 °C 14.0 °C 1014.1 hPa NE 4.7 km/h 13.0 km/h 62 % 0.0 mm
10:09 20.7 °C 12.0 °C 1014.1 hPa ENE 8.7 km/h 13.0 km/h 57 % 0.0 mm
10:14 20.8 °C 13.0 °C 1014.1 hPa ENE 10.5 km/h 14.0 km/h 59 % 0.0 mm
10:19 21.1 °C 12.0 °C 1014.1 hPa North 7.9 km/h 14.3 km/h 57 % 0.0 mm
10:24 21.1 °C 12.0 °C 1014.1 hPa NW 4.7 km/h 16.6 km/h 54 % 0.0 mm
10:29 21.3 °C 12.0 °C 1014.1 hPa North 7.2 km/h 16.6 km/h 55 % 0.0 mm
10:34 21.8 °C 12.0 °C 1014.1 hPa NE 5.8 km/h 14.0 km/h 54 % 0.0 mm
10:39 22.0 °C 12.0 °C 1014.1 hPa North 9.0 km/h 12.2 km/h 53 % 0.0 mm
10:44 22.1 °C 12.0 °C 1014.1 hPa North 9.3 km/h 14.0 km/h 52 % 0.0 mm
10:49 22.0 °C 11.0 °C 1014.1 hPa Calm   14.0 km/h 50 % 0.0 mm
10:54 21.6 °C 11.0 °C 1014.1 hPa NE 6.4 km/h 12.2 km/h 49 % 0.0 mm
10:59 21.6 °C 11.0 °C 1014.1 hPa North 7.6 km/h 11.9 km/h 51 % 0.0 mm
11:04 22.0 °C 12.0 °C 1014.1 hPa NNW 4.7 km/h 10.1 km/h 51 % 0.0 mm
11:09 22.5 °C 12.0 °C 1014.1 hPa ENE 12.6 km/h 15.4 km/h 51 % 0.0 mm
11:14 22.7 °C 12.0 °C 1014.1 hPa ENE 6.9 km/h 15.4 km/h 50 % 0.0 mm
11:19 22.8 °C 12.0 °C 1014.1 hPa North 2.6 km/h 15.4 km/h 49 % 0.0 mm
11:24 23.2 °C 12.0 °C 1014.1 hPa East 1.4 km/h 10.5 km/h 47 % 0.0 mm
11:29 23.4 °C 12.0 °C 1014.1 hPa NE 13.0 km/h 13.0 km/h 47 % 0.0 mm
11:34 23.5 °C 11.0 °C 1014.1 hPa Calm   13.7 km/h 45 % 0.0 mm
11:40 23.4 °C 11.0 °C 1014.1 hPa NE 6.1 km/h 13.7 km/h 46 % 0.0 mm
11:45 24.0 °C 12.0 °C 1014.1 hPa ENE 7.9 km/h 10.5 km/h 46 % 0.0 mm
11:50 24.2 °C 12.0 °C 1014.1 hPa ESE 5.5 km/h 7.9 km/h 46 % 0.0 mm
11:55 24.5 °C 12.0 °C 1014.1 hPa SE 7.2 km/h 7.2 km/h 45 % 0.0 mm
12:00 24.6 °C 13.0 °C 1014.1 hPa South 5.5 km/h 9.7 km/h 46 % 0.0 mm
12:05 23.7 °C 11.0 °C 1014.1 hPa Calm   9.7 km/h 45 % 0.0 mm
12:10 23.6 °C 12.0 °C 1014.1 hPa SSE 2.6 km/h 6.1 km/h 46 % 0.0 mm
12:15 23.2 °C 11.0 °C 1014.1 hPa SSW 4.7 km/h 6.1 km/h 46 % 0.0 mm
12:20 23.4 °C 11.0 °C 1015.1 hPa Calm   6.1 km/h 46 % 0.0 mm
12:25 23.2 °C 12.0 °C 1015.1 hPa Calm   2.1 km/h 47 % 0.0 mm
12:30 22.9 °C 11.0 °C 1015.1 hPa Calm   8.7 km/h 46 % 0.0 mm
12:35 22.9 °C 11.0 °C 1014.1 hPa WSW 5.8 km/h 8.7 km/h 47 % 0.0 mm
12:40 23.1 °C 11.0 °C 1014.1 hPa North 4.7 km/h 8.7 km/h 47 % 0.0 mm
12:45 23.2 °C 12.0 °C 1014.1 hPa Calm   8.7 km/h 47 % 0.0 mm
12:50 22.9 °C 11.0 °C 1014.1 hPa Calm   6.4 km/h 47 % 0.0 mm
12:55 22.5 °C 11.0 °C 1014.1 hPa Calm   9.3 km/h 48 % 0.0 mm
13:00 22.2 °C 11.0 °C 1014.1 hPa West 6.1 km/h 10.8 km/h 48 % 0.0 mm
13:05 22.9 °C 12.0 °C 1014.1 hPa Calm   10.8 km/h 48 % 0.0 mm
13:10 24.2 °C 13.0 °C 1014.1 hPa WSW 4.3 km/h 6.9 km/h 48 % 0.0 mm
13:15 23.5 °C 11.0 °C 1014.1 hPa NE 4.0 km/h 9.0 km/h 45 % 0.0 mm
13:20 23.6 °C 12.0 °C 1014.1 hPa NNW 7.9 km/h 9.7 km/h 46 % 0.0 mm
13:25 23.6 °C 12.0 °C 1014.1 hPa Calm   9.7 km/h 46 % 0.0 mm
13:30 24.6 °C 12.0 °C 1014.1 hPa Calm   8.7 km/h 44 % 0.0 mm
13:36 25.3 °C 13.0 °C 1014.1 hPa NNW 5.8 km/h 8.7 km/h 44 % 0.0 mm
13:41 25.5 °C 12.0 °C 1014.1 hPa NE 5.0 km/h 14.0 km/h 43 % 0.0 mm
13:46 24.8 °C 11.0 °C 1014.1 hPa NE 3.2 km/h 14.0 km/h 42 % 0.0 mm
13:51 24.4 °C 11.0 °C 1014.1 hPa Calm   12.6 km/h 42 % 0.0 mm
13:56 24.7 °C 11.0 °C 1014.1 hPa West 4.0 km/h 9.3 km/h 43 % 0.0 mm
14:01 25.5 °C 12.0 °C 1014.1 hPa WSW 6.9 km/h 7.9 km/h 42 % 0.0 mm
14:06 26.1 °C 12.0 °C 1014.1 hPa NE 3.2 km/h 6.9 km/h 41 % 0.0 mm
14:11 26.1 °C 12.0 °C 1014.1 hPa NE 5.8 km/h 12.2 km/h 40 % 0.0 mm
14:16 25.8 °C 12.0 °C 1014.1 hPa ENE 6.1 km/h 12.6 km/h 41 % 0.0 mm
14:21 25.9 °C 11.0 °C 1014.1 hPa North 6.9 km/h 12.6 km/h 39 % 0.0 mm
14:26 26.2 °C 12.0 °C 1014.1 hPa NNE 6.9 km/h 11.9 km/h 40 % 0.0 mm
14:31 26.1 °C 11.0 °C 1014.1 hPa North 8.7 km/h 12.6 km/h 39 % 0.0 mm
14:36 26.4 °C 12.0 °C 1014.1 hPa Calm   12.6 km/h 40 % 0.0 mm
14:41 26.8 °C 12.0 °C 1014.1 hPa North 2.6 km/h 10.8 km/h 39 % 0.0 mm
14:46 26.7 °C 11.0 °C 1013.1 hPa NW 9.3 km/h 10.5 km/h 38 % 0.0 mm
14:51 26.7 °C 11.0 °C 1013.1 hPa NNE 5.8 km/h 12.2 km/h 38 % 0.0 mm
14:56 26.9 °C 11.0 °C 1013.1 hPa NE 6.1 km/h 12.2 km/h 37 % 0.0 mm
15:01 27.0 °C 11.0 °C 1013.1 hPa NNE 6.1 km/h 12.2 km/h 37 % 0.0 mm
15:06 27.0 °C 10.0 °C 1013.1 hPa NNW 6.4 km/h 12.6 km/h 35 % 0.0 mm
15:11 27.1 °C 11.0 °C 1013.1 hPa North 12.6 km/h 13.0 km/h 36 % 0.0 mm
15:16 27.2 °C 11.0 °C 1013.1 hPa NE 8.7 km/h 13.0 km/h 36 % 0.0 mm
15:21 27.4 °C 11.0 °C 1013.1 hPa NNW 9.7 km/h 12.6 km/h 36 % 0.0 mm
15:26 27.2 °C 11.0 °C 1013.1 hPa North 6.1 km/h 12.2 km/h 36 % 0.0 mm
15:31 26.9 °C 10.0 °C 1013.1 hPa NNE 9.7 km/h 13.0 km/h 35 % 0.0 mm
15:36 26.7 °C 10.0 °C 1013.1 hPa NE 12.6 km/h 17.7 km/h 35 % 0.0 mm
15:41 26.7 °C 10.0 °C 1013.1 hPa ENE 6.4 km/h 17.7 km/h 35 % 0.0 mm
15:46 27.0 °C 11.0 °C 1013.1 hPa NE 5.0 km/h 12.2 km/h 36 % 0.0 mm
15:51 26.8 °C 11.0 °C 1013.1 hPa NNE 8.7 km/h 15.8 km/h 36 % 0.0 mm
15:52 26.8 °C 11.0 °C 1013.1 hPa NNW 6.1 km/h 15.8 km/h 36 % 0.0 mm
15:57 27.0 °C 11.0 °C 1013.1 hPa ENE 5.0 km/h 15.8 km/h 36 % 0.0 mm
16:02 27.3 °C 12.0 °C 1013.1 hPa WNW 5.8 km/h 9.0 km/h 37 % 0.0 mm
16:07 26.9 °C 10.0 °C 1013.1 hPa NNW 9.7 km/h 13.7 km/h 35 % 0.0 mm
16:12 26.2 °C 10.0 °C 1013.1 hPa ENE 13.0 km/h 14.0 km/h 35 % 0.0 mm
16:17 26.5 °C 10.0 °C 1012.1 hPa NNW 8.7 km/h 14.0 km/h 35 % 0.0 mm
16:22 26.7 °C 10.0 °C 1012.1 hPa NNW 9.3 km/h 11.9 km/h 35 % 0.0 mm
16:27 26.7 °C 10.0 °C 1012.1 hPa NNE 10.5 km/h 14.0 km/h 35 % 0.0 mm
16:32 26.6 °C 10.0 °C 1013.1 hPa NNW 12.6 km/h 14.0 km/h 35 % 0.0 mm
16:37 26.4 °C 9.0 °C 1013.1 hPa NNW 9.3 km/h 13.7 km/h 34 % 0.0 mm
16:42 26.6 °C 10.0 °C 1013.1 hPa North 9.0 km/h 13.7 km/h 35 % 0.0 mm
16:47 26.3 °C 9.0 °C 1012.1 hPa North 12.2 km/h 14.3 km/h 34 % 0.0 mm
16:49 26.4 °C 10.0 °C 1012.1 hPa NE 10.5 km/h 14.3 km/h 35 % 0.0 mm
16:59 25.8 °C 9.0 °C 1012.1 hPa NNE 12.6 km/h 16.3 km/h 34 % 0.0 mm
17:04 25.8 °C 9.0 °C 1013.1 hPa NNW 9.0 km/h 16.3 km/h 34 % 0.0 mm
17:09 25.6 °C 9.0 °C 1013.1 hPa NE 12.6 km/h 16.6 km/h 34 % 0.0 mm
17:14 25.6 °C 9.0 °C 1013.1 hPa North 4.7 km/h 16.6 km/h 35 % 0.0 mm
17:19 25.6 °C 9.0 °C 1013.1 hPa NNE 8.7 km/h 16.6 km/h 34 % 0.0 mm
17:24 25.4 °C 9.0 °C 1013.1 hPa North 6.4 km/h 17.2 km/h 34 % 0.0 mm
17:29 25.4 °C 9.0 °C 1013.1 hPa NNE 10.5 km/h 17.2 km/h 34 % 0.0 mm
17:34 25.3 °C 9.0 °C 1013.1 hPa ENE 10.5 km/h 18.0 km/h 34 % 0.0 mm
17:39 25.1 °C 8.0 °C 1013.1 hPa North 12.6 km/h 18.0 km/h 34 % 0.0 mm
17:44 25.3 °C 9.0 °C 1013.1 hPa North 14.0 km/h 17.2 km/h 34 % 0.0 mm
17:49 25.3 °C 9.0 °C 1013.1 hPa NNE 11.1 km/h 17.2 km/h 34 % 0.0 mm
17:54 24.7 °C 8.0 °C 1013.1 hPa NNE 13.0 km/h 17.2 km/h 35 % 0.0 mm
17:59 24.6 °C 8.0 °C 1013.1 hPa North 10.1 km/h 20.9 km/h 34 % 0.0 mm
18:04 24.7 °C 8.0 °C 1013.1 hPa NNE 11.6 km/h 20.9 km/h 35 % 0.0 mm
18:09 24.4 °C 8.0 °C 1013.1 hPa NE 15.1 km/h 17.7 km/h 35 % 0.0 mm
18:14 24.3 °C 8.0 °C 1013.1 hPa NNE 6.9 km/h 17.7 km/h 35 % 0.0 mm
18:19 24.3 °C 8.0 °C 1013.1 hPa NE 10.1 km/h 16.9 km/h 35 % 0.0 mm
18:24 24.4 °C 8.0 °C 1013.1 hPa North 12.2 km/h 17.2 km/h 35 % 0.0 mm
18:29 24.4 °C 8.0 °C 1013.1 hPa NE 16.6 km/h 17.2 km/h 35 % 0.0 mm
18:34 24.1 °C 8.0 °C 1013.1 hPa North 12.6 km/h 19.8 km/h 36 % 0.0 mm
18:39 24.1 °C 8.0 °C 1013.1 hPa NNE 16.6 km/h 19.8 km/h 36 % 0.0 mm
18:44 24.1 °C 8.0 °C 1013.1 hPa NE 14.0 km/h 17.7 km/h 36 % 0.0 mm
18:49 23.9 °C 9.0 °C 1013.1 hPa North 14.0 km/h 17.7 km/h 37 % 0.0 mm
18:54 23.9 °C 8.0 °C 1013.1 hPa North 14.8 km/h 16.3 km/h 36 % 0.0 mm
18:56 24.0 °C 8.0 °C 1013.1 hPa North 6.9 km/h 16.6 km/h 36 % 0.0 mm
19:01 23.7 °C 8.0 °C 1013.1 hPa NNE 11.9 km/h 17.7 km/h 37 % 0.0 mm
19:06 23.6 °C 8.0 °C 1013.1 hPa North 16.3 km/h 19.5 km/h 37 % 0.0 mm
19:11 23.5 °C 9.0 °C 1013.1 hPa North 17.2 km/h 19.5 km/h 38 % 0.0 mm
19:16 23.4 °C 8.0 °C 1013.1 hPa NNE 5.8 km/h 19.5 km/h 38 % 0.0 mm
19:21 23.3 °C 8.0 °C 1013.1 hPa NE 16.3 km/h 17.2 km/h 38 % 0.0 mm
19:26 23.1 °C 9.0 °C 1013.1 hPa NNE 15.1 km/h 17.2 km/h 39 % 0.0 mm
19:31 23.0 °C 8.0 °C 1013.1 hPa NE 12.6 km/h 17.2 km/h 38 % 0.0 mm
19:36 22.9 °C 9.0 °C 1013.1 hPa NE 9.3 km/h 17.2 km/h 40 % 0.0 mm
19:41 22.8 °C 9.0 °C 1013.1 hPa North 13.0 km/h 17.2 km/h 40 % 0.0 mm
19:47 22.7 °C 9.0 °C 1013.1 hPa ENE 13.7 km/h 17.2 km/h 41 % 0.0 mm
19:52 22.5 °C 9.0 °C 1013.1 hPa NNE 14.3 km/h 16.9 km/h 41 % 0.0 mm
19:57 22.3 °C 9.0 °C 1013.1 hPa NE 17.7 km/h 18.0 km/h 41 % 0.0 mm
20:02 22.2 °C 9.0 °C 1013.1 hPa NNE 17.7 km/h 18.0 km/h 42 % 0.0 mm
20:07 22.0 °C 9.0 °C 1013.1 hPa NNE 9.7 km/h 17.7 km/h 42 % 0.0 mm
20:12 21.9 °C 9.0 °C 1013.1 hPa NE 9.7 km/h 16.9 km/h 43 % 0.0 mm
20:17 21.6 °C 9.0 °C 1012.1 hPa NNE 12.2 km/h 19.8 km/h 43 % 0.0 mm
20:22 21.4 °C 8.0 °C 1012.1 hPa NNE 13.0 km/h 19.8 km/h 43 % 0.0 mm
20:25 21.4 °C 8.0 °C 1012.1 hPa NE 13.7 km/h 17.7 km/h 43 % 0.0 mm
20:29 21.4 °C 9.0 °C 1012.1 hPa NNE 16.9 km/h 17.7 km/h 44 % 0.0 mm
20:34 21.4 °C 9.0 °C 1013.1 hPa North 13.0 km/h 16.9 km/h 44 % 0.0 mm
20:39 20.7 °C 9.0 °C 1013.1 hPa NE 10.5 km/h 16.9 km/h 45 % 0.0 mm
20:44 20.6 °C 9.0 °C 1013.1 hPa North 7.9 km/h 15.8 km/h 45 % 0.0 mm
20:49 20.3 °C 9.0 °C 1013.1 hPa NNE 10.1 km/h 15.4 km/h 46 % 0.0 mm
20:54 20.0 °C 8.0 °C 1013.1 hPa NNE 12.6 km/h 16.3 km/h 46 % 0.0 mm
20:59 19.9 °C 9.0 °C 1013.1 hPa NE 9.3 km/h 16.3 km/h 47 % 0.0 mm
21:05 19.8 °C 9.0 °C 1013.1 hPa NNE 11.9 km/h 14.0 km/h 48 % 0.0 mm
21:10 19.6 °C 9.0 °C 1013.1 hPa NNE 11.9 km/h 14.0 km/h 49 % 0.0 mm
21:15 19.4 °C 9.0 °C 1013.1 hPa NE 14.0 km/h 15.4 km/h 50 % 0.0 mm
21:20 19.3 °C 9.0 °C 1012.1 hPa NE 12.2 km/h 15.4 km/h 51 % 0.0 mm
21:25 19.0 °C 9.0 °C 1012.1 hPa NE 9.3 km/h 16.9 km/h 52 % 0.0 mm
21:30 18.8 °C 9.0 °C 1012.1 hPa NE 9.3 km/h 16.9 km/h 54 % 0.0 mm
21:35 18.6 °C 9.0 °C 1013.1 hPa NE 9.7 km/h 13.0 km/h 54 % 0.0 mm
21:40 18.4 °C 9.0 °C 1013.1 hPa NE 7.2 km/h 13.0 km/h 55 % 0.0 mm
21:45 18.2 °C 9.0 °C 1013.1 hPa NE 6.4 km/h 14.0 km/h 56 % 0.0 mm
21:50 18.1 °C 9.0 °C 1013.1 hPa NE 11.9 km/h 14.0 km/h 55 % 0.0 mm
21:55 17.9 °C 9.0 °C 1013.1 hPa Calm   13.0 km/h 57 % 0.0 mm
22:00 17.7 °C 9.0 °C 1013.1 hPa NE 8.7 km/h 14.0 km/h 57 % 0.0 mm
22:01 17.7 °C 9.0 °C 1013.1 hPa North 9.3 km/h 14.0 km/h 57 % 0.0 mm
22:06 17.5 °C 9.0 °C 1012.1 hPa ENE 6.1 km/h 14.0 km/h 58 % 0.0 mm
22:07 17.5 °C 9.0 °C 1012.1 hPa NE 7.6 km/h 14.0 km/h 58 % 0.0 mm
22:13 17.3 °C 9.0 °C 1012.1 hPa NE 6.9 km/h 13.0 km/h 58 % 0.0 mm
22:18 17.3 °C 9.0 °C 1013.1 hPa North 10.5 km/h 13.0 km/h 58 % 0.0 mm
22:23 17.3 °C 9.0 °C 1013.1 hPa NE 9.7 km/h 12.2 km/h 58 % 0.0 mm
22:28 16.8 °C 9.0 °C 1013.1 hPa ENE 14.0 km/h 14.0 km/h 60 % 0.0 mm
22:33 16.6 °C 9.0 °C 1013.1 hPa NNE 9.0 km/h 14.0 km/h 61 % 0.0 mm
22:38 16.5 °C 9.0 °C 1013.1 hPa NE 9.0 km/h 12.2 km/h 61 % 0.0 mm
22:43 16.3 °C 9.0 °C 1013.1 hPa NE 7.9 km/h 11.9 km/h 62 % 0.0 mm
22:53 16.1 °C 9.0 °C 1013.1 hPa NNE 8.7 km/h 13.0 km/h 64 % 0.0 mm
22:58 16.0 °C 9.0 °C 1013.1 hPa NNE 11.9 km/h 13.0 km/h 64 % 0.0 mm
23:03 15.9 °C 10.0 °C 1013.1 hPa NE 6.1 km/h 11.9 km/h 65 % 0.0 mm
23:08 15.8 °C 9.0 °C 1013.1 hPa North 6.9 km/h 14.0 km/h 66 % 0.0 mm
23:13 15.8 °C 9.0 °C 1013.1 hPa NNE 9.3 km/h 14.0 km/h 66 % 0.0 mm
23:23 15.5 °C 10.0 °C 1013.1 hPa NNE 11.9 km/h 12.6 km/h 67 % 0.0 mm
23:28 15.5 °C 10.0 °C 1013.1 hPa NE 7.9 km/h 12.6 km/h 67 % 0.0 mm
23:33 15.4 °C 10.0 °C 1013.1 hPa NE 6.4 km/h 11.9 km/h 68 % 0.0 mm
23:36 15.4 °C 10.0 °C 1013.1 hPa NE 10.1 km/h 11.9 km/h 68 % 0.0 mm
23:41 15.2 °C 10.0 °C 1013.1 hPa NNE 7.9 km/h 10.5 km/h 68 % 0.0 mm
23:46 15.2 °C 10.0 °C 1013.1 hPa NE 8.7 km/h 12.2 km/h 69 % 0.0 mm
23:51 15.2 °C 10.0 °C 1013.1 hPa NNE 12.2 km/h 12.6 km/h 69 % 0.0 mm
23:56 15.2 °C 10.0 °C 1013.1 hPa NNE 4.7 km/h 13.0 km/h 70 % 0.0 mm
Le Gheer Warneton
Courtoisie de Weather Underground - 2.25 mb

Mise a jour : 17-12-17 03:21:12
Généré par Cumulus 1.9.4 (1099)